Location: Asheville, NC
(35.6000°N, 82.5500°W)
Time: 12:59:28
(UTC-05:00)

CUTE 1.7 + AOD 2 - Pass Details

Date: 10 January 2018
Orbit: 595 x 613 km, 97.6° (Epoch: 16 January)

Event Time Altitude Azimuth Distance (km) Brightness Sun altitude
Rises 18:20:58 0° 154° (SSE) 2,861 ? -9.3°
Reaches altitude 10° 18:23:11 10° 148° (SSE) 1,961 ? -9.7°
Maximum altitude 18:27:17 48° 74° (ENE) 801 ? -10.5°
Drops below altitude 10° 18:31:25 10° 1° (N) 1,969 ? -11.3°
Sets 18:33:39 0° 355° (N) 2,875 ? -11.7°
